LU3MCV-13 Weather Reports


Display with metric or nautical units.
time (UTC)temp
F
wind
direction
speed
MPH
gust
MPH
rain 1hr
in
rain 24hr
in
rain mn
in
humidity
%
barometer
mb
20260507055819 61 0 0.0 0.0 0.00 0.00 0.00 8 930.7
20260507054319 63 0 0.0 0.0 0.00 0.00 0.00 5 930.2
20260507052819 61 0 0.0 0.0 0.00 0.00 0.00 5 929.8
20260507051318 61 0 0.0 0.0 0.00 0.00 0.00 8 929.4
20260507045818 61 0 0.0 0.0 0.00 0.00 0.00 8 929.0
20260507044319 63 0 0.0 0.0 0.00 0.00 0.00 5 929.1
20260507042818 64 0 0.0 0.0 0.00 0.00 0.00 5 928.3
20260507041319 63 0 0.0 0.0 0.00 0.00 0.00 5 927.9
20260507035819 63 0 0.0 0.0 0.00 0.00 0.00 5 927.8
20260507034319 63 0 0.0 0.0 0.00 0.00 0.00 5 927.2
20260507032819 63 0 0.0 0.0 0.00 0.00 0.00 8 927.3
20260507031318 63 0 0.0 0.0 0.00 0.00 0.00 8 927.4
20260507025818 63 0 0.0 0.0 0.00 0.00 0.00 13 927.2
20260507024318 63 0 0.0 0.0 0.00 0.00 0.00 13 927.3
20260507022819 63 0 0.0 0.0 0.00 0.00 0.00 13 927.1
20260507021318 63 0 0.0 0.0 0.00 0.00 0.00 13 927.4
20260507015818 61 0 0.0 0.0 0.00 0.00 0.00 13 927.5
20260507014318 61 0 0.0 0.0 0.00 0.00 0.00 13 927.1
20260507012818 63 0 0.0 0.0 0.00 0.00 0.00 13 927.2
20260507011318 63 0 0.0 0.0 0.00 0.00 0.00 13 926.9
20260507005819 63 0 0.0 0.0 0.00 0.00 0.00 13 926.7
20260507004319 63 0 0.0 0.0 0.00 0.00 0.00 10 926.3
20260507002818 64 0 0.0 0.0 0.00 0.00 0.00 13 926.6
20260507001318 64 0 0.0 0.0 0.00 0.00 0.00 13 926.4
20260506235818 64 0 0.0 0.0 0.00 0.00 0.00 13 926.4
20260506234318 64 0 0.0 0.0 0.00 0.00 0.00 13 926.5
20260506232818 64 0 0.0 0.0 0.00 0.00 0.00 10 926.8
20260506231318 64 0 0.0 0.0 0.00 0.00 0.00 10 926.7
20260506225818 64 0 0.0 0.0 0.00 0.00 0.00 13 927.0
20260506224319 64 0 0.0 0.0 0.00 0.00 0.00 13 926.8
20260506222818 66 0 0.0 0.0 0.00 0.00 0.00 13 926.3
20260506221318 66 0 0.0 0.0 0.00 0.00 0.00 13 926.3
20260506215817 66 0 0.0 0.0 0.00 0.00 0.00 13 925.8
20260506214318 66 0 0.0 0.0 0.00 0.00 0.00 13 926.0
20260506212818 68 0 0.0 0.0 0.00 0.00 0.00 11 925.7
20260506211318 68 0 0.0 0.0 0.00 0.00 0.00 11 926.0
20260506205818 68 0 0.0 0.0 0.00 0.00 0.00 10 926.1
20260506204318 70 0 0.0 0.0 0.00 0.00 0.00 10 925.8
20260506202818 70 0 0.0 0.0 0.00 0.00 0.00 10 925.1
20260506201318 70 0 0.0 0.0 0.00 0.00 0.00 8 924.2
20260506195818 72 0 0.0 0.0 0.00 0.00 0.00 8 924.4
20260506194318 72 0 0.0 0.0 0.00 0.00 0.00 8 924.9
20260506194310 72 0 0.0 0.0 0.00 0.00 0.00 10 924.9
20260506192810 72 0 0.0 0.0 0.00 0.00 0.00 8 924.8
20260506191310 72 0 0.0 0.0 0.00 0.00 0.00 8 924.7
20260506185810 73 0 0.0 0.0 0.00 0.00 0.00 8 924.9
20260506184310 75 0 0.0 0.0 0.00 0.00 0.00 8 924.3
20260506182810 75 0 0.0 0.0 0.00 0.00 0.00 8 924.0
20260506181310 75 0 0.0 0.0 0.00 0.00 0.00 8 923.1
20260506175810 75 0 0.0 0.0 0.00 0.00 0.00 12 923.8
20260506174310 75 0 0.0 0.0 0.00 0.00 0.00 20 923.9
20260506172810 75 0 0.0 0.0 0.00 0.00 0.00 20 924.0
20260506171310 75 0 0.0 0.0 0.00 0.00 0.00 20 923.6
20260506165810 75 0 0.0 0.0 0.00 0.00 0.00 19 923.5
20260506164310 75 0 0.0 0.0 0.00 0.00 0.00 20 923.4
20260506162810 75 0 0.0 0.0 0.00 0.00 0.00 20 923.6
20260506161309 73 0 0.0 0.0 0.00 0.00 0.00 22 923.7
20260506155809 73 0 0.0 0.0 0.00 0.00 0.00 23 923.7
20260506154309 72 0 0.0 0.0 0.00 0.00 0.00 24 924.0
20260506152810 72 0 0.0 0.0 0.00 0.00 0.00 25 924.5
20260506151310 70 0 0.0 0.0 0.00 0.00 0.00 25 925.1
20260506145810 70 0 0.0 0.0 0.00 0.00 0.00 25 925.3
20260506144309 68 0 0.0 0.0 0.00 0.00 0.00 25 925.6
20260506142810 68 0 0.0 0.0 0.00 0.00 0.00 26 925.7
20260506141310 66 0 0.0 0.0 0.00 0.00 0.00 28 925.8
20260506135809 66 0 0.0 0.0 0.00 0.00 0.00 30 926.1
20260506134309 64 0 0.0 0.0 0.00 0.00 0.00 31 926.0
20260506132810 64 0 0.0 0.0 0.00 0.00 0.00 32 926.0
20260506131310 64 0 0.0 0.0 0.00 0.00 0.00 32 926.3
20260506125809 63 0 0.0 0.0 0.00 0.00 0.00 33 926.0
20260506124310 63 0 0.0 0.0 0.00 0.00 0.00 34 926.3
20260506122809 61 0 0.0 0.0 0.00 0.00 0.00 35 926.4
20260506121309 59 0 0.0 0.0 0.00 0.00 0.00 35 926.5
20260506115809 57 0 0.0 0.0 0.00 0.00 0.00 38 926.5
20260506114309 57 0 0.0 0.0 0.00 0.00 0.00 39 926.5
20260506112810 57 0 0.0 0.0 0.00 0.00 0.00 39 926.2
20260506111309 55 0 0.0 0.0 0.00 0.00 0.00 39 926.2
20260506105810 57 0 0.0 0.0 0.00 0.00 0.00 37 926.3
20260506104309 57 0 0.0 0.0 0.00 0.00 0.00 37 926.1
20260506102810 57 0 0.0 0.0 0.00 0.00 0.00 37 926.4
20260506101310 57 0 0.0 0.0 0.00 0.00 0.00 37 926.4
20260506095809 57 0 0.0 0.0 0.00 0.00 0.00 36 926.4
20260506094309 57 0 0.0 0.0 0.00 0.00 0.00 35 926.3
20260506092809 57 0 0.0 0.0 0.00 0.00 0.00 35 926.5
20260506091309 57 0 0.0 0.0 0.00 0.00 0.00 34 926.4
20260506085809 57 0 0.0 0.0 0.00 0.00 0.00 34 926.4
20260506084309 59 0 0.0 0.0 0.00 0.00 0.00 33 926.6
20260506082809 59 0 0.0 0.0 0.00 0.00 0.00 33 926.8
20260506081309 59 0 0.0 0.0 0.00 0.00 0.00 32 926.9
20260506072809 59 0 0.0 0.0 0.00 0.00 0.00 33 927.8
20260506071309 57 0 0.0 0.0 0.00 0.00 0.00 34 928.2
20260506061309 57 0 0.0 0.0 0.00 0.00 0.00 32 928.3